Location: Nitra
(0.0000°N, 18.0833°E)
Time: 05:10:48
(UTC+01:00)

S3M - Pass Details

Date: 24 January 2021
Orbit: 949 x 1004 km, 83.0° (Epoch: 04 March)

Event Time Altitude Azimuth Distance (km) Brightness Sun altitude
Exits shadow 19:23:01 30° 46° (NE) 1,628 4.7 -19.6°
Maximum altitude 19:25:07 40° 87° (E) 1,391 4.3 -20.1°
Drops below altitude 10° 19:30:50 10° 155° (SSE) 2,711 6.3 -21.4°
Sets 19:33:30 0° 162° (SSE) 3,669 7.1 -22.1°
